This is the latest recevied weather packets stored in our database for station/object N3LF. If no packets are shown the sender has not sent any weather packets the latest 10 day(s).
| Time | Temp. | Humidity | Pressure | Rain* | Wind** | Luminosity | Snow |
|---|---|---|---|---|---|---|---|
| 1777858778 | 13.33° C | 65% | 1017.6 hPa | 0 mm | - | 0 W/m² | - |
| 1777858477 | 13.89° C | 65% | 1017.5 hPa | 0 mm | - | 0 W/m² | - |
| 1777858172 | 13.89° C | 62% | 1017.5 hPa | 0 mm | - | 0 W/m² | - |
| 1777857871 | 14.44° C | 64% | 1017.3 hPa | 0 mm | - | 0 W/m² | - |
| 1777857568 | 14.44° C | 61% | 1017.4 hPa | 0 mm | - | 0 W/m² | - |
| 1777857265 | 15° C | 56% | 1017.2 hPa | 0 mm | - | 0 W/m² | - |
| 1777856960 | 15° C | 56% | 1017.2 hPa | 0 mm | - | 0 W/m² | - |
| 1777856657 | 15° C | 56% | 1017.1 hPa | 0 mm | - | 0 W/m² | - |
| 1777856353 | 15° C | 58% | 1017.1 hPa | 0 mm | - | 0 W/m² | - |
| 1777856050 | 15.56° C | 56% | 1017.1 hPa | 0 mm | - | 0 W/m² | - |
| 1777855748 | 15.56° C | 57% | 1017.1 hPa | 0 mm | - | 1 W/m² | - |
| 1777855445 | 16.11° C | 58% | 1017 hPa | 0 mm | - | 1 W/m² | - |
| 1777855141 | 16.11° C | 54% | 1016.9 hPa | 0 mm | - | 3 W/m² | - |
| 1777854838 | 16.67° C | 56% | 1017.1 hPa | 0 mm | - | 5 W/m² | - |
| 1777854535 | 16.67° C | 52% | 1017.1 hPa | 0 mm | - | 7 W/m² | - |
| 1777854231 | 17.22° C | 51% | 1017.2 hPa | 0 mm | - | 10 W/m² | - |
| 1777853929 | 17.78° C | 49% | 1017.3 hPa | 0 mm | - | 13 W/m² | - |
| 1777853626 | 17.78° C | 46% | 1017.5 hPa | 0 mm | - | 16 W/m² | - |
| 1777853323 | 18.33° C | 44% | 1017.7 hPa | 0 mm | - | 19 W/m² | - |
| 1777853020 | 18.89° C | 43% | 1017.4 hPa | 0 mm | - | 25 W/m² | - |
| 1777852718 | 18.89° C | 43% | 1017.3 hPa | 0 mm | - | 30 W/m² | - |
| 1777852415 | 18.89° C | 42% | 1017.4 hPa | 0 mm | - | 35 W/m² | - |
| 1777852112 | 19.44° C | 41% | 1017.4 hPa | 0 mm | - | 41 W/m² | - |
| 1777851810 | 19.44° C | 42% | 1017.5 hPa | 0 mm | - | 48 W/m² | - |
| 1777851508 | 20° C | 39% | 1017.5 hPa | 0 mm | - | 55 W/m² | - |
* Rain latest hour (hover to see other rain measurements)
** Current wind speed in m/s (hover to see current wind gust speed)